Regional Weather Roundup
Issued by NWS

Home | Current Version | Previous Version | Text Only | Print | Product List | Glossary On
Versions: 1 2 3 4 5 6 7 8 9 10 11 12 13 14 15 16 17 18 19 20 21 22 23 24 25 26 27 28 29 30 31 32 33 34 35 36 37 38 39 40 41 42 43 44 45 46 47 48 49 50
000
ASUS45 KPSR 220010
RWRAZ

ARIZONA REGIONAL HOURLY WEATHER ROUNDUP
NATIONAL WEATHER SERVICE PHOENIX AZ
500 PM MST FRI NOV 21 2014

NOTE: FAIR INDICATES FEW OR NO CLOUDS BELOW 12,000 FEET WITH NO
SIGNIFICANT WEATHER AND/OR OBSTRUCTIONS TO VISIBILITY.

AZZ001>003-036-220100-
NORTHWEST ARIZONA

CITY           SKY/WX    TMP DP  RH WIND       PRES   REMARKS
BULLHEAD CITY  CLEAR     73  23  15 N9        29.90S
KINGMAN        CLEAR     62  14  15 NE5       29.96R
6HR MIN TEMP:  61; 6HR MAX TEMP:  65;

$$

AZZ004>008-015-016-018-220100-
NORTH CENTRAL ARIZONA

CITY           SKY/WX    TMP DP  RH WIND       PRES   REMARKS
GRAND CANYON   PTCLDY    47  18  31 N7        30.04R
6HR MIN TEMP:  47; 6HR MAX TEMP:  52;

PRESCOTT       PTCLDY    53  19  26 N5        29.98R
6HR MIN TEMP:  50; 6HR MAX TEMP:  59;

FLAGSTAFF      CLEAR     45  16  31 E7        30.03R
6HR MIN TEMP:  42; 6HR MAX TEMP:  50;

PAYSON         CLEAR     54  18  24 SW6       30.01R
$$

AZZ009>014-017-220100-
NORTHEAST ARIZONA

CITY           SKY/WX    TMP DP  RH WIND       PRES   REMARKS
WINSLOW        FAIR      55  16  21 CALM      30.00R
6HR MIN TEMP:  48; 6HR MAX TEMP:  57;

SAINT JOHNS    MOCLDY    50  21  32 CALM      30.00R
6HR MIN TEMP:  38; 6HR MAX TEMP:  52;

SHOW LOW       MOCLDY    45  18  33 N5        30.05R
$$

AZZ023-220100-
GREATER PHOENIX AREA

CITY           SKY/WX    TMP DP  RH WIND       PRES   REMARKS
PHOENIX        MOCLDY    70  26  19 CALM      29.87R
6HR MIN TEMP:  65; 6HR MAX TEMP:  72;

BUCKEYE          N/A     66  30  26 N3        29.89R
GLENDALE       MOCLDY    66  37  34 SW3       29.88R
LUKE AFB       MOCLDY    68  37  32 W5        29.86F
6HR MIN TEMP:  64; 6HR MAX TEMP:  69; 6HR PCP: TRACE;

DEER VALLEY    MOCLDY    64  30  27 NE5       29.88R
6HR MIN TEMP:  64; 6HR MAX TEMP:  71;

SCOTTSDALE     PTCLDY    65  23  20 NE7       29.90S
6HR MIN TEMP:  65; 6HR MAX TEMP:  70;

MESA-FALCON    PTCLDY    64  25  22 W8        29.89R
MESA-GATEWAY   MOCLDY    66  25  20 NW7       29.90S
CHANDLER       MOCLDY    68  25  19 NW7       29.88S
$$

AZZ027-028-220100-
SOUTHWEST MARICOPA COUNTY AND PINAL COUNTY

CITY           SKY/WX    TMP DP  RH WIND       PRES   REMARKS
CASA GRANDE    PTCLDY    66  23  19 CALM      29.89S
6HR MIN TEMP:  59; 6HR MAX TEMP:  70;

GILA BEND      PTCLDY    70  34  26 NE5       29.87S
$$

AZZ503-504-507>509-220100-
SOUTHEAST ARIZONA

CITY           SKY/WX    TMP DP  RH WIND       PRES   REMARKS
TUCSON         MOCLDY    65  18  16 W8        29.92R
6HR MIN TEMP:  61; 6HR MAX TEMP:  69;

DAVIS-MONTHAN  MOCLDY    64  20  18 NW10      29.90R
6HR MIN TEMP:  61; 6HR MAX TEMP:  68;

RYAN FIELD       N/A     70  28  21 NW9       29.93R
NOGALES        MOCLDY    61  25  25 S9        29.92R
6HR MIN TEMP:  61; 6HR MAX TEMP:  67;

SIERRA VISTA   MOCLDY    57  19  23 SW6       29.94S
DOUGLAS        CLOUDY    59  21  23 SW6       29.93S
6HR MIN TEMP:  58; 6HR MAX TEMP:  65;

SAFFORD        MOCLDY    58  21  24 NW7       29.93R
6HR MIN TEMP:  57; 6HR MAX TEMP:  61;

$$

AZZ020-021-025-026-031-220100-
SOUTHWEST ARIZONA

CITY           SKY/WX    TMP DP  RH WIND       PRES   REMARKS
YUMA           PTCLDY    72  42  34 NW8       29.89R
6HR MIN TEMP:  68; 6HR MAX TEMP:  74;

$$

CAZ031-033-041-043-047-048-061-220100-
SOUTHERN CALIFORNIA

CITY           SKY/WX    TMP DP  RH WIND       PRES   REMARKS
DOWNTOWN L.A.  CLEAR     69  45  41 SW3       29.94R
6HR MIN TEMP:  66; 6HR MAX TEMP:  73;

L.A. AIRPORT   PTCLDY    67  53  61 W10       29.95S
6HR MIN TEMP:  66; 6HR MAX TEMP:  69;

SAN DIEGO      PTCLDY    67  53  61 NW7       29.97S
6HR MIN TEMP:  66; 6HR MAX TEMP:  69;

BURBANK        CLEAR     69  42  37 S7        29.94R
6HR MIN TEMP:  65; 6HR MAX TEMP:  73;

ONTARIO        PTCLDY    68  45  43 W9        29.94R
6HR MIN TEMP:  61; 6HR MAX TEMP:  70;

RIVERSIDE      CLEAR     69  45  41 W8        29.94R
6HR MIN TEMP:  61; 6HR MAX TEMP:  72;

PALM SPRINGS   CLEAR     70  38  31 CALM      29.92R
6HR MIN TEMP:  63; 6HR MAX TEMP:  72;

EL CENTRO NAS  PTCLDY    73  42  32 W7        29.89S
6HR MIN TEMP:  66; 6HR MAX TEMP:  75;

IMPERIAL       CLEAR     72  43  35 NW6       29.89R
6HR MIN TEMP:  65; 6HR MAX TEMP:  73;

BLYTHE         CLEAR     74  33  22 NE3       29.89R
6HR MIN TEMP:  64; 6HR MAX TEMP:  75;

NEEDLES        CLEAR     74  19  12 CALM      29.90S
6HR MIN TEMP:  67; 6HR MAX TEMP:  75;

$$

NVZ020-UTZ003-220100-
SOUTHERN NEVADA-UTAH

CITY           SKY/WX    TMP DP  RH WIND       PRES   REMARKS
LAS VEGAS      CLEAR     67  28  23 S6        29.91S
6HR MIN TEMP:  61; 6HR MAX TEMP:  68;

SALT LAKE CITY PTCLDY    44  27  51 W7        30.00R
6HR MIN TEMP:  43; 6HR MAX TEMP:  50;

$$

NMZ009-TXZ055-220100-
NEW MEXICO-WEST TEXAS

CITY           SKY/WX    TMP DP  RH WIND       PRES   REMARKS
ALBUQUERQUE    CLOUDY    50  15  24 NE3       30.02R
6HR MIN TEMP:  45; 6HR MAX TEMP:  53;

EL PASO        CLOUDY    65  27  23 NE6       29.92S
6HR MIN TEMP:  61; 6HR MAX TEMP:  69;

$$


........................KEY........................
SKY/WX - SKY CONDITION/WEATHER
TMP    - TEMPERATURE IN FAHRENHEIT
DP     - DEW POINT IN FAHRENHEIT
RH     - RELATIVE HUMIDITY IN PERCENT
WIND   - DIRECTION AND SPEED IN MILES PER HOUR (MPH)
VRB    - VARIABLE WIND DIRECTION
PRES   - MEAN SEA LEVEL PRESSURE IN INCHES OF MERCURY
         F - FALLING PRESSURE   R - RISING PRESSURE
         S - STEADY PRESSURE
VSB    - VISIBILITY IN MILES
HX     - HEAT INDEX IN FAHRENHEIT
WCI    - WIND CHILL INDEX IN FAHRENHEIT
TC     - TEMPERATURE IN CELSIUS WHICH IS ALSO KNOWN AS
         TEMPERATURE IN CENTIGRADE
AFB    - AIR FORCE BASE
         LUKE AFB IS LUKE AIR FORCE BASE
         DAVIS-MONTHAN IS DAVIS-MONTHAN AIR FORCE BASE
NAS    - NAVAL AIR STATION
         EL CENTRO NAS IS EL CENTRO NAVAL AIR STATION
N/A    - NOT AVAILABLE



USA.gov is the U.S. government's official web portal to all federal, state and local government web resources and services.